Location: G�ppingen
(48.7089°N, 9.6563°E)
Time: 10:58:33
(UTC+02:00)

M-CUBED/EXP-1 PRIME - Pass Details

Date: 26 March 2019
Orbit: 430 x 671 km, 101.7° (Epoch: 20 April)

Event Time Altitude Azimuth Distance (km) Brightness Sun altitude
Rises 20:17:06 0° 24° (NNE) 2,969 ? -15.9°
Reaches altitude 10° 20:19:21 10° 30° (NNE) 2,076 ? -16.2°
Maximum altitude 20:23:46 48° 105° (ESE) 871 ? -16.9°
Drops below altitude 10° 20:28:13 10° 180° (S) 2,096 ? -17.6°
Sets 20:30:30 0° 186° (S) 3,001 ? -17.9°
